Regional Weather Roundup
Issued by NWS Boston, MA

Home | Current Version | Previous Version | Text Only | Print | Product List | Glossary On
Versions: 1 2 3 4 5 6 7 8 9 10 11 12 13 14 15 16 17 18 19 20 21 22 23 24 25 26 27 28 29 30 31 32 33 34 35 36 37 38 39 40 41 42 43 44 45 46 47 48 49 50
000
ASUS41 KBOX 020510
RWRBOX

REGIONAL WEATHER ROUNDUP
NATIONAL WEATHER SERVICE TAUNTON MA
100 AM EDT WED SEP 02 2015

NOTE:  "FAIR" INDICATES FEW OR NO CLOUDS BELOW 12,000 FEET WITH NO
SIGNIFICANT WEATHER AND/OR OBSTRUCTIONS TO VISIBILITY.  THE FOLLOWING
OBSERVATION LOCATIONS DO NOT REPORT PRESENT WEATHER...PROVINCETOWN...
SMITHFIELD...BLOCK ISLAND...KEENE...AND OXFORD.

MAZALL-020600-
EASTERN MASSACHUSETTS

CITY           SKY/WX    TMP DP  RH WIND       PRES   REMARKS
BOSTON         CLEAR     70  61  73 SW7       30.04S
BEVERLY        CLEAR     63  60  90 CALM      30.03S
LAWRENCE       CLEAR     65  61  87 S3        30.05S
BEDFORD        CLEAR     66  61  84 SW3       30.02S
BLUE HILL        N/A     66  61  84 SW12      30.05S
NORWOOD        CLEAR     61  61 100 CALM      30.04S FOG
MARSHFIELD     CLEAR     66  64  94 SW5       30.06S
PLYMOUTH       CLEAR     65  64  97 SW3       30.06S
TAUNTON        CLEAR     61  59  93 SE3       30.05S FOG
NEW BEDFORD    FOG       65  65 100 SW3       30.05S VSB 1/4
$$

MAZALL-020600-
CAPE COD AND THE ISLANDS

CITY           SKY/WX    TMP DP  RH WIND       PRES   REMARKS
FALMOUTH       CLEAR     64  63  94 SW5       30.06S
HYANNIS        CLEAR     69  63  81 S6        30.05S
CHATHAM        CLEAR     64  63  96 CALM      30.07S
PROVINCETOWN     N/A     66  61  82 SW8       30.06R
NANTUCKET      CLEAR     63  60  90 S5        30.06S
MARTHAS VNYRD  FOG       55  54  96 CALM      30.06S VSB 3/4
$$

MAZALL-020600-
CENTRAL AND WESTERN MASSACHUSETTS

CITY           SKY/WX    TMP DP  RH WIND       PRES   REMARKS
WORCESTER      CLEAR     64  60  87 W9        30.07F
FITCHBURG      CLEAR     63  59  87 CALM      30.04F
ORANGE         CLEAR     60  59  96 CALM      30.06S
SPRINGFIELD    CLEAR     60  58  93 CALM      30.04S
WESTFIELD      CLEAR     63  61  93 CALM      30.05S
NORTH ADAMS    CLEAR     58  56  93 CALM      30.08S
PITTSFIELD     CLEAR     59  57  93 CALM      30.08S
$$

RIZALL-020600-
RHODE ISLAND

CITY           SKY/WX    TMP DP  RH WIND       PRES   REMARKS
PROVIDENCE     CLEAR     67  64  90 SW3       30.06S
NEWPORT        CLEAR     69  67  93 CALM      30.06S FOG
BLOCK ISLAND   CLEAR     70  68  94 S6        30.06F
SMITHFIELD     CLEAR     63  61  94 SW3       30.06S
WESTERLY       PTCLDY    63  60  90 CALM      30.06F FOG
$$

CTZALL-020600-
CONNECTICUT

CITY           SKY/WX    TMP DP  RH WIND       PRES   REMARKS
BRADLEY INTL   CLEAR     68  62  81 S5        30.04S
HARTFORD       CLEAR     69  65  86 S6        30.04S
BRIDGEPORT     CLEAR     75  66  73 SW5       30.06S
DANBURY        CLEAR     64  61  90 CALM      30.08S
GROTON         CLEAR     65  65 100 CALM      30.05F FOG
NEW HAVEN      CLEAR     68  65  90 CALM      30.06S
CHESTER        NOT AVBL
MERIDEN        CLEAR     65  62  90 CALM      30.06S
WILLIMANTIC    CLEAR     64  60  87 CALM      30.06S
OXFORD         CLEAR     66  57  72 CALM      30.09S
$$

MEZ002-015-021-024-NHZ003-005-008-011-012-014-VTZ005-008-020600-
NORTHERN NEW ENGLAND

CITY           SKY/WX    TMP DP  RH WIND       PRES   REMARKS
PORTLAND ME    CLEAR     64  60  87 CALM      30.03S
BANGOR ME      PTCLDY    61  58  90 S7        30.00F
CONCORD NH     CLEAR     62  58  86 CALM      30.04S
MANCHESTER NH  CLEAR     67  59  75 CALM      30.02S
NASHUA NH      CLEAR     63  61  93 CALM      30.04S
PORTSMOUTH NH  CLEAR     62  59  91 CALM      30.02S
JAFFREY NH     CLEAR     60  58  92 S3        30.07F
KEENE NH       CLEAR     59  54  82 CALM      30.06S
BURLINGTON VT  CLEAR     64  58  80 CALM      30.02R
MT. WASHINGTON CLEAR     61  19  20 W22         N/A
$$

NYZ052-076-020600-
EASTERN NEW YORK

CITY           SKY/WX    TMP DP  RH WIND       PRES   REMARKS
ALBANY         CLEAR     69  64  84 CALM      30.04S
NEW YORK CITY  CLEAR     77  67  71 S3        30.05S
$$

ANZALL-020600-
MARINE OBSERVATIONS

STATION/POSITION TIME  TEMP    WIND        PRES    VSBY  WAVE
                       AIR SEA DIR/SP/G                  HT/PER
                 (UTC) (F)     (DEG/KT/KT) (MB)    (MI)  (FT/S)
BOSTON BUOY      0450   69 70  210/ 10/ 12 1017.2F         1/ 3
BUZZARDS BAY     0400          180/  8/  8 1018.6F
NANTUCKET SOUND  0450   71 75  200/  8/ 10 1017.5F         0
MASS BAY-STELLWA 0404   70 69  190/ 12/ 14   N/A    1 7/8  2/ 3
ISLE OF SHOALS   0500   67     240/  6/  7 1016.3S
S OF BLOCK IS    0408      74                N/A           2/ 5
$$

......................KEY.........................
  SKY/WX - SKY CONDITION/PRESENT WEATHER
  TMP    - TEMPERATURE IN FAHRENHEIT
  DWPT   - DEWPOINT IN FAHRENHEIT
  RH     - RELATIVE HUMIDITY IN PERCENT
  WIND   - DIRECTION AND SPEED IN MPH
  PRES   - MEAN SEA LEVEL PRESSURE IN INCHES OF HG
  WCI    - WIND CHILL INDEX
  VSB    - VISIBILITY IN MILES
  HX     - HEAT INDEX
  TC     - TEMPERATURE IN CELSIUS
  VRB    - VARIABLE WIND DIRECTION
  N/A    - NOT AVAILABLE


USA.gov is the U.S. government's official web portal to all federal, state and local government web resources and services.